| time (UTC) | temp C | wind direction | speed KPH | gust KPH | rain 1hr cm | rain 24hr cm | rain mn cm | humidity % | barometer mb |
| 20260902050032 | 23 | 109 | 0.0 | 1.6 | 0.00 | 0.00 | 0.00 | 59 | 1010.4 |
| 20260902044526 | 22 | 109 | 0.0 | 3.2 | 0.00 | 0.00 | 0.00 | 60 | 1010.4 |
| 20260902043025 | 21 | 109 | 0.0 | 0.0 | 0.00 | 0.00 | 0.00 | 63 | 1010.5 |
| 20260902041540 | 20 | 109 | 0.0 | 0.0 | 0.00 | 0.00 | 0.00 | 65 | 1010.3 |
| 20260902040026 | 20 | 109 | 0.0 | 0.0 | 0.00 | 0.00 | 0.00 | 65 | 1010.1 |
| 20260902034523 | 20 | 109 | 0.0 | 1.6 | 0.00 | 0.00 | 0.00 | 65 | 1010.2 |
| 20260902033023 | 20 | 109 | 0.0 | 1.6 | 0.00 | 0.00 | 0.00 | 65 | 1010.1 |
| 20260902031522 | 19 | 109 | 0.0 | 0.0 | 0.00 | 0.00 | 0.00 | 65 | 1010.0 |
| 20260902030021 | 18 | 109 | 0.0 | 3.2 | 0.00 | 0.00 | 0.00 | 68 | 1010.1 |
| 20260902024520 | 18 | 110 | 0.0 | 0.0 | 0.00 | 0.00 | 0.00 | 69 | 1010.1 |
| 20260902023020 | 18 | 110 | 0.0 | 0.0 | 0.00 | 0.00 | 0.00 | 72 | 1010.1 |
| 20260902021523 | 18 | 110 | 0.0 | 0.0 | 0.00 | 0.00 | 0.00 | 75 | 1010.0 |
| 20260902020017 | 18 | 110 | 0.0 | 0.0 | 0.00 | 0.00 | 0.00 | 77 | 1010.0 |
| 20260902014523 | 18 | 110 | 0.0 | 0.0 | 0.00 | 0.00 | 0.00 | 79 | 1010.2 |
| 20260902013013 | 18 | 110 | 0.0 | 0.0 | 0.00 | 0.00 | 0.00 | 77 | 1010.2 |
| 20260902011513 | 19 | 110 | 0.0 | 0.0 | 0.00 | 0.00 | 0.00 | 75 | 1010.2 |
| 20260902010009 | 19 | 110 | 0.0 | 1.6 | 0.00 | 0.00 | 0.00 | 74 | 1010.1 |
| 20260902004514 | 19 | 110 | 0.0 | 1.6 | 0.00 | 0.03 | 0.00 | 71 | 1010.2 |
| 20260902003020 | 20 | 130 | 0.0 | 3.2 | 0.00 | 0.03 | 0.00 | 69 | 1010.0 |
| 20260902001505 | 20 | 147 | 0.0 | 4.8 | 0.00 | 0.03 | 0.00 | 68 | 1010.0 |
| 20260902000104 | 20 | 109 | 0.0 | 3.2 | 0.00 | 0.03 | 0.00 | 67 | 1009.8 |
| 20260901234557 | 21 | 37 | 0.0 | 1.6 | 0.00 | 0.03 | 0.00 | 65 | 1009.5 |
| 20260901233053 | 21 | 23 | 0.0 | 1.6 | 0.00 | 0.03 | 0.00 | 63 | 1009.6 |
| 20260901231600 | 21 | 23 | 0.0 | 0.0 | 0.00 | 0.03 | 0.00 | 62 | 1009.6 |
| 20260901230052 | 22 | 14 | 0.0 | 0.0 | 0.00 | 0.03 | 0.00 | 61 | 1009.4 |
| 20260901224551 | 22 | 20 | 0.0 | 8.0 | 0.00 | 0.03 | 0.00 | 59 | 1009.4 |
| 20260901223049 | 22 | 11 | 0.0 | 3.2 | 0.00 | 0.03 | 0.00 | 59 | 1009.5 |
| 20260901221546 | 22 | 335 | 0.0 | 3.2 | 0.00 | 0.03 | 0.00 | 60 | 1009.7 |
| 20260901220048 | 22 | 97 | 0.0 | 1.6 | 0.00 | 0.03 | 0.00 | 61 | 1010.0 |
| 20260901214543 | 22 | 97 | 0.0 | 1.6 | 0.00 | 0.03 | 0.00 | 59 | 1010.2 |
| 20260901213040 | 22 | 97 | 0.0 | 0.0 | 0.00 | 0.03 | 0.00 | 58 | 1010.2 |
| 20260901211539 | 22 | 97 | 0.0 | 1.6 | 0.00 | 0.03 | 0.00 | 58 | 1010.4 |
| 20260901210042 | 22 | 97 | 0.0 | 0.0 | 0.00 | 0.03 | 0.00 | 59 | 1010.5 |
| 20260901204535 | 22 | 97 | 0.0 | 0.0 | 0.00 | 0.03 | 0.03 | 60 | 1010.7 |
| 20260901203039 | 22 | 97 | 0.0 | 0.0 | 0.00 | 0.03 | 0.03 | 61 | 1010.7 |
| 20260901201535 | 22 | 97 | 0.0 | 0.0 | 0.00 | 0.03 | 0.03 | 61 | 1010.8 |
| 20260901200032 | 21 | 97 | 0.0 | 0.0 | 0.00 | 0.03 | 0.03 | 65 | 1010.8 |
| 20260901194533 | 21 | 97 | 0.0 | 0.0 | 0.00 | 0.03 | 0.03 | 71 | 1010.8 |
| 20260901193031 | 20 | 97 | 0.0 | 0.0 | 0.00 | 0.03 | 0.03 | 78 | 1010.8 |
| 20260901191536 | 20 | 97 | 0.0 | 0.0 | 0.00 | 0.03 | 0.03 | 82 | 1010.8 |
| 20260901190030 | 21 | 97 | 0.0 | 0.0 | 0.00 | 0.03 | 0.03 | 88 | 1010.8 |
| 20260901184529 | 21 | 97 | 0.0 | 0.0 | 0.00 | 0.03 | 0.03 | 90 | 1010.7 |
| 20260901183028 | 21 | 97 | 0.0 | 1.6 | 0.00 | 0.03 | 0.03 | 91 | 1010.7 |
| 20260901181532 | 21 | 97 | 0.0 | 3.2 | 0.00 | 0.03 | 0.03 | 91 | 1010.7 |
| 20260901180030 | 21 | 97 | 0.0 | 1.6 | 0.00 | 0.03 | 0.03 | 92 | 1010.6 |
| 20260901174525 | 21 | 97 | 0.0 | 3.2 | 0.00 | 0.03 | 0.03 | 92 | 1010.5 |
| 20260901173031 | 21 | 97 | 0.0 | 4.8 | 0.00 | 0.03 | 0.03 | 92 | 1010.3 |
| 20260901171524 | 21 | 311 | 0.0 | 1.6 | 0.00 | 0.03 | 0.03 | 92 | 1010.3 |
| 20260901170024 | 21 | 311 | 0.0 | 1.6 | 0.00 | 0.03 | 0.03 | 93 | 1010.2 |
| 20260901164523 | 21 | 311 | 0.0 | 1.6 | 0.00 | 0.03 | 0.03 | 92 | 1010.1 |
| 20260901163037 | 21 | 311 | 0.0 | 1.6 | 0.00 | 0.03 | 0.03 | 91 | 1010.0 |
| 20260901161523 | 22 | 311 | 0.0 | 1.6 | 0.00 | 0.03 | 0.03 | 91 | 1010.0 |
| 20260901160021 | 22 | 310 | 0.0 | 1.6 | 0.00 | 0.03 | 0.03 | 90 | 1010.0 |
| 20260901154533 | 22 | 310 | 0.0 | 1.6 | 0.00 | 0.03 | 0.03 | 89 | 1010.1 |
| 20260901153031 | 23 | 284 | 0.0 | 3.2 | 0.00 | 0.03 | 0.03 | 88 | 1010.1 |
| 20260901151521 | 23 | 272 | 0.0 | 3.2 | 0.00 | 0.03 | 0.03 | 87 | 1010.1 |
| 20260901150020 | 23 | 310 | 0.0 | 4.8 | 0.00 | 0.03 | 0.03 | 86 | 1010.0 |
| 20260901144521 | 23 | 300 | 1.6 | 9.7 | 0.00 | 0.03 | 0.03 | 86 | 1010.0 |
| 20260901143018 | 23 | 319 | 3.2 | 8.0 | 0.00 | 0.03 | 0.03 | 85 | 1010.1 |
| 20260901141519 | 23 | 281 | 0.0 | 12.9 | 0.00 | 0.03 | 0.03 | 84 | 1009.9 |
| 20260901140019 | 24 | 286 | 3.2 | 9.7 | 0.00 | 0.03 | 0.03 | 84 | 1010.0 |
| 20260901134517 | 24 | 298 | 3.2 | 12.9 | 0.00 | 0.03 | 0.03 | 83 | 1010.0 |
| 20260901133016 | 25 | 311 | 1.6 | 14.5 | 0.00 | 0.03 | 0.03 | 82 | 1010.0 |
| 20260901131516 | 25 | 288 | 4.8 | 9.7 | 0.00 | 0.03 | 0.03 | 80 | 1009.9 |
| 20260901130016 | 25 | 218 | 3.2 | 12.9 | 0.00 | 0.03 | 0.03 | 79 | 1009.9 |
| 20260901124514 | 25 | 295 | 3.2 | 11.3 | 0.00 | 0.03 | 0.03 | 79 | 1009.9 |
| 20260901123012 | 25 | 315 | 4.8 | 14.5 | 0.00 | 0.03 | 0.03 | 79 | 1010.0 |
| 20260901121512 | 25 | 275 | 1.6 | 16.1 | 0.00 | 0.03 | 0.03 | 79 | 1010.1 |
| 20260901120008 | 25 | 250 | 3.2 | 12.9 | 0.00 | 0.03 | 0.03 | 79 | 1010.2 |
| 20260901114507 | 25 | 259 | 4.8 | 14.5 | 0.00 | 0.03 | 0.03 | 80 | 1010.2 |
| 20260901113006 | 25 | 303 | 3.2 | 14.5 | 0.00 | 0.03 | 0.03 | 79 | 1010.2 |
| 20260901111507 | 25 | 307 | 3.2 | 9.7 | 0.00 | 0.03 | 0.03 | 80 | 1010.3 |
| 20260901110002 | 25 | 255 | 3.2 | 9.7 | 0.00 | 0.03 | 0.03 | 80 | 1010.2 |
| 20260901104501 | 24 | 290 | 3.2 | 12.9 | 0.00 | 0.03 | 0.03 | 80 | 1010.2 |
| 20260901103100 | 24 | 319 | 1.6 | 11.3 | 0.00 | 0.03 | 0.03 | 82 | 1010.3 |
| 20260901101559 | 24 | 315 | 4.8 | 11.3 | 0.00 | 0.03 | 0.03 | 81 | 1010.3 |
| 20260901100100 | 24 | 300 | 3.2 | 9.7 | 0.00 | 0.03 | 0.03 | 82 | 1010.2 |
| 20260901094558 | 23 | 324 | 3.2 | 12.9 | 0.00 | 0.03 | 0.03 | 83 | 1010.3 |
| 20260901093059 | 23 | 320 | 0.0 | 12.9 | 0.00 | 0.03 | 0.03 | 84 | 1010.3 |
| 20260901091604 | 23 | 282 | 3.2 | 9.7 | 0.00 | 0.03 | 0.03 | 84 | 1010.4 |
| 20260901090100 | 23 | 319 | 4.8 | 14.5 | 0.00 | 0.03 | 0.03 | 84 | 1010.4 |
| 20260901084554 | 23 | 307 | 6.4 | 11.3 | 0.00 | 0.03 | 0.03 | 83 | 1010.4 |
| 20260901083054 | 23 | 286 | 6.4 | 14.5 | 0.00 | 0.03 | 0.03 | 83 | 1010.4 |
| 20260901081555 | 23 | 296 | 6.4 | 16.1 | 0.00 | 0.03 | 0.03 | 80 | 1010.4 |
| 20260901080108 | 24 | 307 | 3.2 | 9.7 | 0.00 | 0.03 | 0.03 | 77 | 1010.5 |
| 20260901074551 | 24 | 294 | 3.2 | 12.9 | 0.00 | 0.03 | 0.03 | 75 | 1010.5 |
| 20260901073049 | 24 | 303 | 0.0 | 6.4 | 0.00 | 0.03 | 0.03 | 72 | 1010.5 |
| 20260901071552 | 24 | 269 | 0.0 | 6.4 | 0.00 | 0.03 | 0.03 | 69 | 1010.5 |
| 20260901070057 | 23 | 228 | 0.0 | 6.4 | 0.00 | 0.03 | 0.03 | 68 | 1010.5 |
| 20260901064603 | 23 | 302 | 1.6 | 8.0 | 0.00 | 0.03 | 0.03 | 65 | 1010.4 |
| 20260901063053 | 23 | 308 | 1.6 | 6.4 | 0.00 | 0.03 | 0.03 | 64 | 1010.4 |
| 20260901061541 | 23 | 18 | 0.0 | 6.4 | 0.00 | 0.03 | 0.03 | 65 | 1010.3 |
| 20260901060041 | 22 | 309 | 0.0 | 9.7 | 0.00 | 0.03 | 0.03 | 65 | 1010.2 |
| 20260901054534 | 21 | 310 | 0.0 | 4.8 | 0.00 | 0.03 | 0.03 | 68 | 1010.0 |
| 20260901053030 | 21 | 332 | 0.0 | 6.4 | 0.00 | 0.03 | 0.03 | 73 | 1009.9 |
| 20260901051526 | 20 | 31 | 0.0 | 3.2 | 0.00 | 0.03 | 0.03 | 80 | 1009.8 |